Regional Weather Roundup
Issued by NWS Upton, NY

Current Version | Previous Version | Text Only | Print | Product List | Glossary On
Versions: 1 2 3 4 5 6 7 8 9 10 11 12 13 14 15 16 17 18 19 20 21 22 23 24 25 26 27 28 29 30 31 32 33 34 35 36 37 38 39 40 41 42 43 44 45 46 47 48 49 50
000
ASUS41 KOKX 200205
RWROKX

Regional Weather Roundup
National Weather Service New York NY
900 PM EST MON FEB 19 2018

Note: "FAIR" indicates few or no clouds below 12,000 feet with no
significant weather and/or obstructions to visibility.

NYZ071-072-176-178-NJZ106-104-200300-
New York City Metro Area

CITY           SKY/WX    TMP DP  RH WIND       PRES   REMARKS
Central Park   CLOUDY    48  47  96 CALM      30.37S FOG
Bronx Bot Gard   N/A     45  45 100 SE2       30.35F
Bronx Lehman C   N/A     48  45  87 SE3         N/A
LaGuardia Arpt LGT RAIN  47  44  90 SE6       30.34F FOG
Queens College   N/A     45  45 100 S2          N/A
Kennedy Intl   CLOUDY    44  44 100 S3        30.36S
Breezy Point     N/A     41 N/A N/A S3          N/A
Brooklyn Coll    N/A     46  45  93 CALM        N/A
Staten Island    N/A     46  45  93 NE1         N/A
Newark/Liberty DRIZZLE   47  46  97 CALM      30.34F FOG
Teterboro      LGT RAIN  46  44  93 CALM      30.34F FOG
$$

NYZ177-179-078>081-200300-
Long Island New York

CITY           SKY/WX    TMP DP  RH WIND       PRES   REMARKS
Jones Beach      N/A     43 N/A N/A SW6G12      N/A
Wantagh          N/A     45  43  93 S6          N/A
Hempstead      NOT AVBL
Matinecock Pt    N/A     46 N/A N/A SW6         N/A
Farmingdale    LGT RAIN  46  45  96 SW10      30.37R
MacArthur/ISP  LGT RAIN  48  47  96 SW14      30.37R FOG
Shirley        LGT RAIN  47  47 100 S9        30.38R
Mt Sinai Harb    N/A    N/A N/A N/A SW10G20     N/A
Westhampton    LGT RAIN  47  46  97 S10       30.39S
East Hampton   DRIZZLE   46  44  93 S9        30.37S
Southold         N/A     48  46  93 SW9         N/A
Montauk        NOT AVBL
$$

NYZ052-065-067-200300-
Hudson Valley

CITY           SKY/WX    TMP DP  RH WIND       PRES   REMARKS
White Plains   LGT RAIN  44  43  96 CALM      30.33F VSB 1
Larchmont Harb   N/A     43 N/A N/A S5          N/A
Croton On Huds   N/A     43 N/A N/A MISG        N/A
Somers           N/A     41  39  93 SE1         N/A
Brewster         N/A     39  39 100 CALM        N/A
Newburgh       CLOUDY    39  39 100 CALM      30.34F FOG
Montgomery     LGT RAIN  36  35  96 CALM      30.32F VSB 1/2
Otisville        N/A     39  39 100 W3          N/A
Warwick          N/A     41  41 100 N1          N/A
Suffern          N/A     41  39  93 SW1         N/A
Poughkeepsie   LGT RAIN  38  37  97 CALM      30.33F VSB 1/2
Albany         LGT RAIN  41  37  86 S14       30.25F FOG
$$

NJZ001-105-106-008-010-013-015-019>022-104-200300-
New Jersey

CITY           SKY/WX    TMP DP  RH WIND       PRES   REMARKS
Newark/Liberty DRIZZLE   47  46  97 CALM      30.34F FOG
Teterboro      LGT RAIN  46  44  93 CALM      30.34F FOG
Caldwell       LGT RAIN  41  41 100 CALM      30.35F FOG
Somerville     FOG       40  40 100 CALM      30.33F VSB 3/4
Linden         CLOUDY    46  44  93 CALM      30.35F FOG
Perth Amboy      N/A     45 N/A N/A NW2         N/A
Sussex         LGT RAIN  39  39 100 VRB3      30.32F FOG
Andover          N/A     38  38 100 CALM      30.32F
Trenton        CLOUDY    45  45 100 CALM      30.33F FOG
Millville      CLOUDY    51  49  92 VRB5      30.35S
Atlantic City  CLOUDY    52  52 100 S13G23    30.36  FOG
Wrightstown    CLOUDY    54  52  94 SW8       30.31S
Toms River     CLOUDY    52  51  97 S14       30.35F
Belmar         CLOUDY    53  51  93 S12G17    30.35F
$$

PAZ047>061-062-071-200300-
Eastern Pennsylvania

CITY           SKY/WX    TMP DP  RH WIND       PRES   REMARKS
Philadelphia   CLOUDY    48  47  96 W3        30.35  FOG
Allentown      FOG       40  37  89 CALM      30.33F VSB 1/2
Scranton       CLOUDY    43  41  93 SW7       30.29S
$$

CTZ002-004>006-009-010-012-RIZ004-006-007-MAZ004-011-015-200300-
Southern New England

 In CT

CITY           SKY/WX    TMP DP  RH WIND       PRES   REMARKS
Bradley Intl   LGT RAIN  44  43  96 S6        30.33R FOG
Hartford       LGT RAIN  46  45  96 S7        30.34R FOG
Danbury        LGT RAIN N/A N/A N/A CALM      30.35S
Wtrbury/Oxford LGT RAIN  44  43  96 VRB3      30.34S VSB 1
Norwalk Harbor   N/A     43 N/A N/A SW6         N/A
Bridgeport     RAIN      43  43 100 CALM      30.36R FOG
Meriden        LGT RAIN  44  44 100 S3        30.36R FOG
New Haven      LGT RAIN  44  42  93 S5        30.36R FOG
Chester        LGT RAIN  48  46  93 SW9       30.35R
Groton         LGT RAIN  45  43  93 S6        30.37S FOG
Willimantic    LGT RAIN  48  46  93 S6        30.35R

 In RI

CITY           SKY/WX    TMP DP  RH WIND       PRES   REMARKS
Providence     CLOUDY    48  47  96 S9        30.36S
Block Island   CLOUDY    47  45  93 SW16      30.38S
Westerly       LGT RAIN  49  47  93 SW9       30.37S

In MA

CITY           SKY/WX    TMP DP  RH WIND       PRES   REMARKS
Boston         LGT RAIN  48  45  89 SW18      30.31S
Worcester      RAIN      43  42  97 SW17G25   30.30R FOG
Westfield      LGT RAIN  42  42 100 S7        30.32F FOG
Provincetown   LGT RAIN  44  42  93 S13       30.36S
Nantucket      LGT RAIN  45  45 100 S13       30.41F
$$

ANZ330-335-338-340-345-350-353-355-200300-
Coastal Marine Observations


STATION/POSITION TIME  SKY/WX   TEMP    WIND        PRES    VSBY  WAVE
                                AIR SEA DIR/SP/G                  HT/PER
                 (UTC)          (F)     (DEG/KT/KT) (MB)    (MI)  (FT/S)
NY Harb Entrance 0150            43 39  200/ 12/ 14 1027.6          3/11
20 S Fire Island 0150            47 42  190/ 12/ 14 1028.2          3/10
15 E Barnegat Li 0130               41                N/A           3/10
Hudson Canyon    0150            51 46  180/ 14/ 16 1029.3          4/11
Kings Point      0124            44 37  220/  4/  5 1029.0
Execution Rocks  NOT AVBL
Western LI Sound NOT AVBL
Central LI Sound 0100            42     190/  4/  6   N/A           0
Robbins Reef     0136            45     100/  2/  2 1028.4
$$


>>>>>>>>>>>>>>>>>>>>>>>>>>>> KEY <<<<<<<<<<<<<<<<<<<<<<<<<<<
>                                                          <
>     SKY/WX - Sky Condition/Present Weather               <
>     TMP    - Temperature in Fahrenheit                   <
>     DP     - Dew Point in Fahrenheit                     <
>     RH     - Relative Humidity in Percent                <
>     WIND   - Direction (from) and Speed in MPH           <
>     PRES   - Mean Sea Level Pressure (inches of Hg)      <
>     WCI    - Wind Chill Index                            <
>     VSB    - Visibility in Miles                         <
>     HX     - Heat Index                                  <
>     TC     - Temperature in Celsius                      <
>     VRB    - Varibale Wind Direction                     <
>                                                          <
>>>>>>>>>>>>>>>>>>>>>>>>>>>> KEY <<<<<<<<<<<<<<<<<<<<<<<<<<<



USA.gov is the U.S. government's official web portal to all federal, state and local government web resources and services.